Location: *
(45.0500°N, 12.0500°E)
Time: 05:29:29
(UTC+00:00)

Cosmos 2082 Rocket - Pass Details

Date: 09 April 2020
Orbit: 831 x 855 km, 71.0° (Epoch: 01 June)

Event Time Altitude Azimuth Distance (km) Brightness Sun altitude
Exits shadow 20:33:42 20° 55° (NE) 1,863 3.9 -26.0°
Drops below altitude 10° 20:35:38 10° 43° (NE) 2,465 4.6 -26.3°
Sets 20:38:17 0° 34° (NE) 3,409 5.5 -26.6°
